Wind_Speed
43 42 39 41 45 45 43 41 40 38 36 36 35 35 36 38 40 41 43 44 46 49 52 51 45 43 45 46 44 37 32 31 28 26 24 22 23 25 22 19 19 19 20 21 22 23 23 23 23 23 23 23 23 23 23 23 23 24 26 27 29 30 30 31 31 30 29 29 30 31 32 31 29 29 32 34 33 32 31 30 30 30 30 29 30
42 41 42 47 49 47 45 42 40 38 37 38 37 36 38 40 42 44 45 48 51 52 51 45 42 46 48 46 41 33 29 29 28 27 25 22 21 22 20 19 20 20 21 21 21 22 23 23 23 22 22 22 22 22 23 25 26 28 30 32 33 33 33 32 32 32 31 30 30 32 33 34 32 30 31 34 34 33 31 31 31 31 31 32 31
42 43 49 52 50 47 46 45 43 42 41 40 39 40 42 45 47 49 51 52 51 48 45 41 43 47 47 42 34 28 26 25 25 26 25 23 21 21 18 18 21 21 21 21 21 22 23 23 23 23 22 23 24 26 27 30 32 34 35 36 36 35 35 35 34 33 32 32 31 32 33 35 34 32 31 33 35 34 32 31 31 32 32 33 33
45 51 54 53 50 48 47 47 47 46 44 43 44 47 50 52 53 53 52 49 45 42 42 43 46 46 42 36 29 24 22 20 22 24 24 24 22 19 16 15 18 19 19 21 21 21 22 23 24 24 24 26 28 30 31 33 34 35 35 35 33 33 34 34 34 33 33 33 33 33 34 35 36 34 32 33 35 34 32 31 32 32 33 33 34
52 55 54 52 50 49 48 49 48 47 47 47 49 51 52 53 51 50 47 43 41 42 44 46 47 42 35 30 24 20 18 17 18 20 20 21 20 18 16 15 15 15 17 19 20 21 22 23 24 25 27 28 30 31 31 31 31 30 30 30 30 31 32 31 31 32 33 33 33 33 34 35 36 36 34 33 34 34 33 32 32 33 33 34 34
52 51 50 49 49 48 48 46 45 45 46 47 49 50 50 49 47 45 43 41 41 44 47 48 45 36 29 26 21 18 20 20 19 20 20 20 20 19 18 17 15 13 15 16 18 20 21 22 24 25 27 29 30 29 28 27 27 27 26 25 25 26 28 29 30 31 32 33 33 34 34 34 35 36 35 34 34 34 34 33 33 34 34 34 34
44 44 44 44 45 45 44 42 41 42 44 46 47 47 47 45 43 41 41 41 43 47 48 46 39 28 25 24 20 20 24 24 23 23 23 23 23 22 21 20 18 17 18 20 22 23 23 22 23 25 26 27 26 25 24 24 25 24 23 21 20 21 23 25 28 29 31 32 33 33 34 34 35 36 36 35 35 34 34 34 34 34 35 35 34
39 39 39 39 39 40 40 41 41 43 45 46 46 45 43 42 40 40 41 43 46 49 48 42 32 24 25 25 21 21 25 26 26 26 26 25 25 25 25 25 24 23 24 26 26 25 24 23 23 25 25 25 24 24 24 23 23 22 20 20 19 19 20 22 24 27 29 31 33 33 34 34 35 36 36 36 36 35 35 34 34 35 35 35 34
37 35 36 37 39 40 41 42 43 44 45 44 43 41 40 39 39 41 44 46 48 48 44 36 28 24 26 25 21 22 24 26 27 27 26 24 25 27 27 28 28 28 29 30 29 26 25 25 25 24 25 26 26 26 26 24 22 21 20 20 20 20 20 21 22 24 27 29 32 33 34 34 34 35 36 36 36 36 36 36 35 35 35 35 35
35 35 38 41 41 41 42 42 42 43 42 41 40 38 37 37 39 43 47 47 46 42 36 29 24 23 26 25 23 23 25 27 27 27 26 25 26 26 26 27 29 32 34 34 32 28 27 26 23 22 24 26 28 27 26 24 22 22 21 20 19 19 20 20 19 20 22 25 29 32 34 34 34 35 36 36 36 36 37 37 37 36 36 36 36
37 39 43 43 41 40 40 40 40 40 39 38 36 35 35 37 41 44 44 42 38 33 28 25 22 21 23 24 24 24 26 28 28 27 26 26 26 24 24 25 26 29 32 32 31 29 28 26 22 21 22 24 26 26 25 23 22 23 23 23 21 21 21 21 20 18 18 20 23 27 31 33 33 34 35 36 36 36 36 37 37 37 38 37 37
43 45 45 42 40 40 39 39 38 36 35 34 34 35 36 38 39 39 37 33 30 28 25 23 23 22 23 24 25 25 26 28 28 26 25 25 25 25 24 25 25 28 30 31 30 29 28 27 25 24 23 23 24 25 23 22 22 22 22 23 23 23 23 22 20 19 18 18 19 22 26 29 32 33 35 36 36 36 36 36 37 38 38 38 38
46 46 45 43 42 41 39 37 34 33 32 33 34 35 36 35 33 30 28 27 26 26 24 23 25 24 25 27 27 27 27 28 28 26 24 24 24 25 25 25 27 29 30 29 27 27 27 28 29 29 27 25 25 24 23 22 21 21 21 22 23 24 24 23 22 21 20 20 20 21 22 25 28 30 33 35 36 37 37 38 38 38 39 39 38
46 46 46 45 43 40 36 33 31 31 31 32 34 34 33 30 26 24 23 24 23 24 24 23 26 28 29 30 30 30 30 30 29 27 26 26 26 26 26 25 24 25 26 26 27 29 30 31 33 33 31 28 26 26 25 23 22 22 22 24 25 25 25 24 24 24 23 23 24 24 23 23 25 28 30 32 33 35 37 38 38 39 39 38 38
46 45 44 42 40 36 34 31 30 29 30 32 32 30 28 25 22 21 21 22 22 22 24 24 26 30 31 33 33 32 32 33 31 30 30 30 30 30 29 27 26 27 27 28 30 32 32 33 34 34 33 30 29 29 29 28 26 25 26 28 28 27 27 26 26 26 28 28 27 27 26 25 25 27 29 31 31 32 34 35 37 37 38 37 37
44 42 40 38 36 34 32 30 29 29 29 28 27 27 25 22 21 22 23 23 24 23 23 24 26 30 33 35 35 35 35 36 35 34 34 33 33 33 32 32 32 31 30 30 31 31 32 33 34 34 34 34 32 32 31 31 31 31 31 31 31 30 29 28 27 27 28 30 30 29 28 27 27 27 29 31 32 32 32 33 34 35 36 36 36
40 37 36 36 34 33 30 28 27 27 25 25 26 27 26 24 23 24 26 26 26 25 23 23 25 30 34 36 37 37 38 38 38 38 38 37 37 36 36 36 35 35 34 33 33 32 33 33 34 35 36 36 35 34 34 34 34 34 33 33 33 32 31 29 27 26 27 30 31 30 30 29 29 28 28 30 32 34 34 33 34 35 35 35 35
37 34 35 35 34 33 29 27 27 26 25 27 28 28 28 27 27 29 29 29 29 28 25 23 23 28 34 38 39 39 40 39 38 39 39 39 39 39 40 40 40 40 40 40 39 39 39 39 39 39 39 39 38 37 37 37 36 37 36 36 35 34 32 29 27 25 25 27 28 29 29 29 30 29 28 28 29 31 33 35 36 37 37 37 37
35 34 35 35 35 33 30 29 29 28 29 31 31 29 29 30 30 31 31 31 31 30 27 25 23 25 30 37 41 42 43 43 43 43 42 42 41 42 42 43 44 45 46 46 46 45 44 43 42 42 42 42 41 39 39 39 38 38 37 36 36 35 33 31 28 24 23 25 27 28 29 31 31 30 30 31 30 30 32 34 35 37 38 38 39
34 35 35 35 35 33 32 31 31 32 33 32 31 29 30 30 30 31 31 31 32 31 30 28 26 25 27 33 39 44 46 46 46 47 47 47 47 47 47 48 49 50 51 51 51 50 48 46 44 43 43 43 43 42 41 40 40 40 38 35 34 34 34 33 32 30 29 30 31 31 32 33 32 32 33 34 34 34 34 35 35 36 38 38 39
33 33 33 34 34 34 34 33 34 35 33 30 29 29 29 30 30 31 32 33 33 33 32 31 29 27 27 30 34 39 44 47 48 49 50 51 52 52 53 54 54 54 54 54 54 53 52 50 48 46 44 44 44 44 43 43 42 42 41 39 37 36 35 34 34 35 35 35 36 37 38 38 37 38 38 37 37 38 38 38 38 39 39 39 39
28 28 30 32 33 34 35 35 36 34 30 28 28 29 30 31 31 33 35 36 36 36 34 33 31 29 28 29 32 35 38 42 46 49 51 52 53 54 55 55 56 56 55 55 55 55 54 53 50 48 45 44 44 44 44 44 44 44 44 43 42 41 40 39 38 38 39 39 41 42 43 42 41 41 41 41 41 42 43 43 43 43 43 42 41
26 27 30 32 33 34 34 34 33 29 27 27 28 29 31 32 34 37 39 40 39 38 36 34 33 31 28 28 30 32 34 37 40 43 46 48 49 50 51 51 51 51 51 51 51 51 51 50 49 47 45 43 42 42 44 44 45 45 45 46 45 45 45 44 44 43 42 42 42 44 45 44 43 43 43 43 43 44 45 45 46 47 47 46 45
29 29 31 33 33 32 32 32 31 29 28 29 31 33 35 37 40 42 43 42 41 40 38 36 34 32 30 28 29 30 32 34 36 37 38 39 41 42 43 43 42 42 42 42 43 43 44 44 45 44 43 42 41 41 42 44 45 46 47 48 48 49 48 48 48 48 47 46 45 45 45 46 46 46 46 46 46 46 46 47 47 48 48 48 48
33 32 32 33 33 32 31 32 33 33 33 35 36 38 40 42 43 44 43 42 42 41 39 38 36 34 31 30 29 30 30 32 33 34 34 35 36 36 37 36 36 35 36 36 37 38 39 39 40 41 41 41 41 42 42 43 44 46 47 48 49 50 51 51 51 51 51 50 50 49 48 47 47 47 48 49 49 49 49 48 48 49 49 50 49
36 35 35 35 36 36 35 35 36 37 38 39 40 41 42 43 43 44 44 43 42 42 40 39 37 36 33 31 30 30 30 31 32 32 33 34 35 35 35 34 33 33 34 35 36 37 38 38 39 40 40 41 42 43 44 45 46 47 47 48 49 50 51 52 52 52 53 53 53 53 53 51 50 48 48 48 49 50 51 51 50 50 50 51 51
38 38 38 39 40 39 39 38 39 40 41 42 43 43 44 44 44 44 44 43 43 42 41 40 40 38 36 33 30 30 30 31 32 32 33 34 35 35 34 33 32 32 33 34 35 37 38 39 41 41 42 43 44 45 45 46 47 48 49 49 49 50 50 51 52 53 53 54 54 54 54 54 54 53 52 51 51 51 51 51 51 51 51 51 52
39 39 40 41 41 41 41 41 41 42 43 44 44 45 45 45 45 45 44 44 44 43 42 42 41 40 38 35 32 31 31 31 33 34 35 37 38 38 36 34 34 34 33 34 35 37 38 40 42 43 44 44 45 46 47 47 47 48 49 49 50 50 51 51 52 53 53 53 54 54 54 55 55 55 55 55 54 53 53 53 52 52 53 54 54
40 42 42 42 43 42 42 42 42 43 44 45 45 45 46 46 45 45 45 44 44 44 43 43 43 42 41 38 36 34 33 33 34 36 38 40 42 43 41 39 38 37 36 37 38 39 41 42 43 44 45 46 46 47 48 48 49 49 49 49 50 51 51 51 51 52 53 53 53 53 54 54 54 55 55 55 55 56 56 56 55 54 55 56 57
44 45 46 46 46 45 44 43 43 43 44 45 46 46 46 46 46 46 45 45 44 44 44 45 44 44 43 42 40 38 37 36 37 38 39 41 44 45 46 44 44 43 42 41 42 44 44 44 44 45 45 46 47 47 47 48 50 50 51 50 50 51 52 52 52 52 52 53 53 53 52 53 53 53 54 54 55 56 57 57 57 56 56 56 57
47 47 47 47 47 47 46 45 44 45 45 46 47 47 47 47 47 46 46 45 45 45 45 45 46 46 45 44 42 40 39 39 40 40 41 42 44 46 47 48 48 48 47 47 48 49 48 46 46 46 46 46 46 47 47 48 49 50 51 52 52 51 51 52 53 53 53 53 53 52 52 52 52 52 53 53 54 54 54 55 56 56 57 57 58
46 46 46 46 46 47 47 47 47 47 48 48 48 48 47 47 47 46 46 45 45 46 46 47 48 48 47 46 44 43 42 41 41 41 42 44 46 47 48 49 50 51 52 53 53 51 49 48 48 47 47 46 46 47 48 48 49 49 51 52 54 54 54 53 54 54 54 54 54 54 53 53 53 53 53 54 54 54 54 54 54 55 56 57 58
45 45 45 46 47 47 48 49 49 49 49 49 49 49 48 48 48 47 47 47 47 48 49 50 50 50 49 48 46 44 43 42 42 42 43 45 46 48 49 51 52 54 55 55 52 50 49 48 48 48 47 47 48 49 50 50 50 50 50 52 54 55 56 56 56 56 56 56 57 57 57 56 56 56 56 57 57 57 58 58 58 58 58 58 58
46 45 46 46 47 47 48 49 49 49 50 50 50 49 49 49 50 51 51 51 51 51 52 52 51 50 49 48 47 46 44 43 42 43 44 46 47 49 50 51 52 53 53 52 50 49 49 48 48 47 47 48 48 48 49 50 51 51 51 52 54 55 57 58 59 59 59 59 59 60 60 60 60 60 61 61 61 62 62 63 63 63 63 62 62
46 45 45 45 46 46 47 48 49 50 51 52 52 52 53 54 55 55 55 55 54 53 52 51 50 49 49 48 48 48 47 46 44 43 44 45 47 48 48 49 49 50 50 50 50 49 48 48 47 46 46 45 44 44 44 46 48 49 51 53 54 55 56 58 60 61 61 61 61 62 62 63 63 64 64 64 64 65 65 66 66 66 65 65 64
46 45 45 44 44 45 47 48 50 52 53 53 54 55 56 57 57 56 56 55 54 52 51 50 51 52 52 52 50 50 50 51 49 48 47 48 49 49 50 49 49 49 50 50 49 48 47 47 48 47 45 44 44 43 42 42 42 45 48 50 53 54 55 57 58 60 61 62 63 64 64 64 64 65 65 65 65 65 65 65 65 65 65 65 64
47 48 48 46 45 45 46 48 49 50 51 52 53 54 55 55 54 54 54 53 52 51 52 54 55 55 55 54 52 53 54 54 54 55 56 55 54 54 54 53 53 52 51 50 49 48 47 48 49 49 47 45 44 43 41 40 40 41 42 45 49 52 54 55 56 58 60 61 63 64 65 65 65 66 66 66 66 66 66 66 66 65 65 65 65
48 49 49 49 48 48 49 50 51 50 49 49 50 50 51 51 51 51 51 51 53 55 57 59 59 58 57 56 56 56 57 57 58 59 61 61 59 58 56 55 55 54 53 52 50 49 48 48 48 47 47 46 45 43 41 41 40 39 38 41 43 46 49 51 53 55 57 59 61 63 64 65 65 66 67 67 67 67 68 68 68 67 67 67 67
47 49 50 53 55 56 58 59 57 54 52 51 49 50 51 51 50 50 52 54 57 59 61 62 62 62 62 61 61 61 61 61 62 63 64 65 64 62 59 57 56 56 55 54 52 50 50 49 48 47 47 47 47 46 45 45 44 42 41 41 43 44 46 47 49 52 54 56 58 59 61 62 64 64 65 65 65 65 65 66 67 67 68 69 69
48 49 51 53 55 57 60 61 59 57 57 56 56 57 57 55 54 55 57 59 60 61 61 62 62 63 63 64 65 66 66 66 66 66 67 67 66 64 61 59 57 57 57 55 53 52 52 51 50 49 48 49 49 49 48 48 48 49 49 48 49 49 49 49 49 50 51 53 55 56 56 58 60 61 61 61 61 61 62 62 63 64 65 67 68
53 53 53 54 54 56 57 58 57 56 56 57 58 58 58 58 58 59 60 60 60 61 62 63 64 65 66 67 69 70 70 71 70 69 69 67 65 64 62 60 59 58 57 55 54 53 53 53 52 52 51 52 53 53 51 51 52 54 56 58 58 57 57 56 55 54 51 51 52 54 54 54 55 55 55 55 56 58 59 61 62 62 63 64 65
60 58 57 57 58 59 59 59 58 57 57 57 58 59 59 59 58 58 60 62 64 66 67 68 69 70 70 71 71 72 72 72 72 72 70 68 65 63 62 61 60 59 57 56 55 55 55 55 54 54 54 55 55 55 55 55 57 58 62 64 65 66 66 65 63 61 58 55 54 54 54 54 54 55 54 54 55 57 58 60 62 64 65 65 64
65 64 61 60 62 63 64 64 63 61 61 61 61 61 60 59 59 61 65 68 70 72 73 73 73 74 74 74 74 73 73 73 74 73 72 70 67 65 63 61 61 60 59 58 57 57 57 57 57 57 57 57 57 58 59 60 62 65 68 70 72 74 74 72 69 67 64 62 60 58 57 56 56 58 59 60 61 61 62 63 64 65 67 68 68
69 70 69 68 66 66 67 69 70 68 67 67 65 62 61 61 63 67 72 74 76 77 77 77 77 76 76 76 75 75 75 75 75 75 74 72 71 69 66 64 62 62 61 60 59 59 59 60 60 61 61 61 61 62 64 67 69 72 74 76 77 78 76 72 70 69 66 64 63 62 61 60 59 62 65 68 69 68 67 67 67 68 70 71 72
68 71 73 73 73 73 73 75 75 71 67 66 65 63 64 66 70 74 77 79 80 80 79 79 78 77 76 76 75 74 74 74 74 74 74 73 72 71 69 67 66 65 64 63 62 62 62 62 63 64 66 67 68 70 72 74 76 78 79 79 77 74 70 67 67 67 65 63 62 63 63 63 63 65 68 71 73 72 70 70 70 71 72 74 76
73 75 77 78 79 80 77 72 68 64 62 63 65 67 70 74 77 81 82 82 82 81 80 79 78 77 77 76 76 75 74 73 72 72 72 72 71 70 69 69 69 69 69 68 67 66 66 66 66 67 68 70 73 76 78 79 80 79 78 74 70 67 65 63 63 63 62 61 60 61 61 62 64 66 69 71 72 72 72 72 72 72 74 76 78
74 73 75 77 75 72 68 63 61 63 65 68 71 74 77 80 82 84 85 84 82 81 79 78 78 78 78 78 78 77 76 74 73 72 72 71 69 68 69 71 72 72 72 72 72 71 72 72 71 71 71 73 76 78 79 79 78 75 71 67 65 63 62 62 61 61 60 59 59 60 59 60 61 63 67 69 70 71 72 72 72 74 75 77 78
68 65 66 69 67 65 65 66 68 72 74 76 78 80 82 84 85 86 85 83 82 80 79 78 78 78 79 79 79 78 77 77 76 76 75 74 71 71 72 74 75 75 75 75 76 77 77 77 77 76 75 75 75 75 75 74 72 70 68 66 65 64 62 61 61 62 61 60 59 60 59 59 60 61 64 67 69 70 70 71 72 73 74 75 76
67 66 66 68 69 71 73 75 77 79 81 83 84 86 87 88 87 85 83 81 80 79 78 77 77 78 78 78 78 78 77 77 77 77 77 76 73 71 72 75 76 77 76 77 78 78 79 79 78 77 75 73 72 71 71 71 70 69 69 68 67 66 64 64 64 65 65 63 62 62 61 60 60 60 62 64 66 67 68 68 69 70 70 71 71
73 74 74 74 76 77 78 80 81 84 86 88 90 91 91 89 87 84 82 80 79 78 77 76 75 76 77 77 77 77 77 77 78 77 77 75 71 69 72 75 76 76 75 74 75 75 76 77 76 76 74 73 72 71 71 71 71 70 70 69 68 67 67 67 68 68 68 67 66 66 65 63 61 60 60 62 64 65 65 65 66 67 67 66 66
80 81 81 82 82 82 83 85 86 88 91 92 92 91 90 89 87 85 83 82 80 79 77 76 75 76 77 78 78 78 78 78 78 78 78 74 70 71 75 77 76 76 76 75 75 75 76 76 77 76 75 74 73 72 71 71 71 71 71 70 69 69 69 69 70 70 70 70 70 71 70 67 66 64 62 62 63 65 65 65 64 65 65 64 63
Wind_Direction
281 280 282 289 292 290 291 292 291 289 290 291 290 288 289 290 289 288 288 288 290 292 296 299 301 302 303 304 299 291 280 275 276 273 266 264 268 275 275 272 268 264 264 265 264 266 268 270 273 274 274 273 272 272 272 272 273 274 274 273 272 270 268 267 265 263 260 256 252 249 248 247 248 249 246 245 245 245 245 244 241 240 240 242 245
277 278 284 291 290 286 286 290 290 290 290 290 290 289 290 290 289 289 289 290 291 294 298 300 302 303 303 301 295 285 274 270 270 268 264 260 262 268 275 287 286 274 273 272 270 270 271 274 276 276 275 274 273 272 272 273 274 275 276 276 273 268 265 264 263 262 260 257 253 250 248 247 246 247 246 245 245 245 246 248 246 243 242 242 244
274 279 288 291 288 283 283 287 290 292 291 289 289 290 292 292 292 292 291 293 295 297 301 303 304 302 299 296 287 275 268 265 263 262 259 257 259 265 271 286 288 281 278 277 274 273 273 273 274 274 274 274 275 275 275 276 276 276 278 278 272 265 261 260 260 260 259 257 254 251 248 247 246 245 245 244 243 244 247 251 250 247 245 245 245
274 282 288 288 286 285 286 289 291 292 291 290 291 293 295 296 296 295 295 297 299 301 303 304 302 299 295 289 278 269 265 261 258 258 258 258 262 269 266 268 277 282 283 279 274 270 269 270 271 272 273 275 278 280 279 278 277 277 278 277 272 265 260 258 257 257 257 255 252 250 248 246 245 244 244 243 242 243 246 251 251 250 249 248 248
276 282 284 283 283 286 289 291 290 289 290 291 293 294 295 297 297 297 298 301 302 303 302 302 301 297 288 278 271 265 260 255 253 257 263 263 265 266 254 253 267 277 282 278 272 268 266 269 272 276 278 281 284 285 282 279 277 277 276 276 274 269 262 257 255 254 253 252 249 248 247 246 245 244 243 242 241 242 245 249 251 251 250 250 250
279 282 283 282 282 285 288 290 289 289 291 292 294 295 296 296 297 298 301 302 301 301 301 301 301 294 278 266 263 258 253 254 252 252 259 267 271 261 241 243 256 262 271 274 271 269 269 272 276 281 286 289 290 287 284 282 280 278 278 279 279 273 265 259 255 253 252 250 248 246 246 246 245 244 242 241 240 240 243 247 250 250 250 250 251
281 282 283 283 283 285 287 289 291 291 292 293 294 295 295 296 297 300 301 300 298 298 300 300 297 286 263 255 255 250 247 253 256 253 254 262 271 263 245 243 249 253 261 269 272 272 273 278 282 287 291 293 292 288 287 289 285 281 280 280 281 279 270 263 257 254 251 249 248 247 246 245 245 243 242 241 240 240 242 245 248 250 250 250 252
280 282 284 285 285 286 287 289 291 292 292 293 293 293 294 297 300 302 300 297 296 296 298 296 289 271 252 250 253 248 247 253 257 256 256 258 265 264 256 251 250 250 255 263 269 271 275 280 284 288 291 292 290 287 290 292 285 279 279 279 281 280 274 268 261 256 252 248 247 246 246 246 245 244 243 242 241 241 241 243 246 248 249 250 253
279 281 286 287 287 287 288 289 290 290 291 291 292 293 296 300 303 302 298 295 295 296 294 289 279 259 246 246 248 246 246 252 253 252 253 255 257 257 255 253 251 249 252 261 268 273 280 284 286 288 289 288 288 289 291 292 285 278 277 279 282 282 276 270 265 259 254 249 246 245 245 245 246 245 244 242 241 241 241 243 245 246 247 248 251
277 282 289 291 291 290 290 289 289 289 289 290 291 294 299 303 303 299 296 296 296 295 289 281 271 254 247 247 246 242 242 246 249 250 252 254 254 252 255 258 258 256 259 265 271 277 284 286 285 284 285 287 289 290 291 291 286 279 278 279 281 282 278 272 266 262 258 254 249 246 245 244 245 246 246 245 244 243 243 244 245 246 246 247 249
277 285 292 293 292 291 289 288 288 288 288 290 293 298 303 303 300 298 297 298 297 294 284 273 263 251 249 251 245 239 240 243 248 251 252 252 250 251 257 261 262 263 266 270 274 279 282 281 279 281 285 288 289 288 289 289 286 282 280 281 281 278 276 274 271 267 263 258 254 250 249 248 246 246 247 247 247 246 246 247 247 248 247 247 247
281 288 291 290 289 287 286 286 286 287 290 295 300 302 302 301 299 299 300 301 299 294 282 265 257 251 245 243 239 236 237 241 245 247 249 251 253 255 259 261 260 262 268 273 275 275 275 273 274 280 285 288 287 284 284 286 285 283 282 282 281 278 276 277 277 276 271 265 260 254 251 251 250 249 248 249 249 249 250 251 251 250 249 248 248
286 289 289 288 286 284 283 283 285 289 294 298 300 300 300 301 303 307 309 306 300 295 285 262 251 250 245 240 237 234 232 234 238 241 243 248 253 255 257 260 261 263 267 271 271 271 272 272 274 278 282 285 283 281 281 282 282 282 281 279 277 277 280 281 279 277 276 275 272 265 257 254 254 253 252 251 251 251 252 253 253 252 251 250 249
288 287 287 286 284 282 281 282 286 292 296 297 297 298 301 303 309 319 321 316 306 297 290 269 249 248 249 244 240 236 232 232 235 238 241 244 248 251 253 256 258 260 262 262 264 269 273 273 274 277 280 280 278 277 277 276 277 277 275 273 272 275 279 281 281 279 278 278 278 276 271 266 262 258 257 256 255 255 254 254 253 253 252 251 251
287 286 286 284 282 281 281 285 290 293 294 294 296 299 303 306 315 326 331 329 320 305 295 281 256 246 249 247 242 239 236 235 235 235 239 244 247 250 253 256 258 261 261 260 264 269 272 272 274 276 277 276 277 277 275 272 271 270 270 271 272 274 275 276 278 279 279 279 277 277 276 274 269 262 258 257 258 258 257 256 254 253 253 252 253
285 285 284 281 281 282 284 289 292 293 292 293 298 303 304 306 314 323 329 332 330 320 306 291 267 250 248 249 246 242 240 239 238 237 239 242 246 250 254 258 262 264 265 266 269 272 273 274 275 275 274 276 279 279 276 273 271 270 271 272 274 275 274 275 276 277 278 278 276 275 273 272 270 267 262 258 257 258 259 257 255 254 254 255 255
284 283 281 280 280 281 283 288 290 290 291 295 303 306 304 303 309 315 322 326 328 326 316 300 278 257 249 250 250 247 244 242 242 241 241 242 244 248 252 258 263 266 269 271 273 276 277 277 278 277 275 277 279 279 276 274 273 273 272 272 273 274 274 275 276 277 277 276 274 273 273 270 266 266 265 261 257 257 258 258 257 255 255 255 254
283 281 279 279 279 278 278 281 284 287 292 298 303 304 300 299 303 309 315 320 323 324 319 307 290 270 256 251 251 252 250 248 247 246 245 245 245 248 252 257 262 266 271 274 277 279 281 282 281 280 279 278 278 276 274 273 272 272 272 272 272 272 272 274 275 276 277 276 273 270 270 268 265 263 261 259 258 257 257 257 257 257 256 256 255
280 278 277 277 276 273 272 274 280 286 293 299 302 299 294 295 300 306 312 317 320 321 320 313 301 285 268 257 253 253 254 254 255 255 255 254 254 255 257 260 263 267 272 277 281 284 285 284 282 280 279 278 276 274 272 272 270 270 271 272 271 271 271 272 272 269 267 268 268 268 268 267 266 264 262 262 262 260 259 258 257 257 257 257 258
277 276 276 275 273 269 268 272 279 289 295 299 300 294 290 293 299 305 310 314 317 318 320 318 310 298 283 270 261 257 256 257 258 259 262 263 264 264 265 267 269 271 275 279 282 285 286 285 283 280 278 276 275 273 271 270 268 267 266 265 266 267 268 269 269 266 262 262 265 268 269 267 266 265 266 267 266 265 263 261 259 259 258 258 258
276 276 275 273 271 267 269 274 281 291 297 297 293 288 288 292 297 302 307 311 313 314 317 320 317 307 295 284 274 266 262 260 259 261 263 265 267 268 269 271 273 275 277 280 282 284 285 285 284 283 280 277 274 272 270 269 267 265 262 259 258 258 260 262 263 264 262 261 261 264 266 267 268 269 269 270 270 270 270 269 267 265 263 262 261
275 276 275 274 273 272 275 280 286 292 296 291 285 284 286 290 294 300 305 308 310 311 314 319 320 314 303 293 285 279 273 268 265 263 264 266 267 269 270 272 274 276 278 280 282 283 283 284 284 284 282 279 275 272 270 269 267 265 262 259 257 256 256 256 256 258 260 260 260 261 263 266 268 269 270 271 271 272 272 272 272 270 269 267 266
272 272 273 274 276 279 282 287 290 292 290 284 281 282 285 289 293 298 302 304 305 308 312 317 320 317 308 299 291 286 284 280 275 271 269 269 271 272 274 275 277 279 281 282 282 283 283 283 283 282 281 279 276 273 270 269 267 266 264 262 260 259 257 256 255 256 258 260 261 262 263 264 265 267 269 270 271 272 272 271 271 270 270 269 268
270 271 275 278 281 285 288 290 290 288 283 281 282 283 286 289 293 296 298 300 302 305 309 313 318 317 310 302 295 290 288 286 282 280 278 276 276 276 278 280 282 284 285 285 285 284 284 283 282 281 280 278 276 273 271 269 268 267 267 265 263 262 260 259 257 256 256 257 260 262 264 265 265 266 268 269 270 271 271 270 269 269 268 268 267
273 274 278 282 284 287 288 288 287 285 283 283 284 285 287 289 292 294 296 298 300 304 306 309 313 314 310 304 299 294 289 286 284 282 281 280 280 280 280 282 284 286 287 287 287 287 287 286 284 282 280 278 276 273 271 270 269 268 267 266 266 265 263 261 259 258 257 257 258 260 262 264 265 266 268 268 269 270 269 269 268 267 266 266 265
275 276 277 280 283 285 286 286 286 285 285 285 285 286 287 289 291 293 294 296 299 301 303 306 309 310 307 304 302 298 291 287 285 283 282 282 281 281 282 284 285 286 286 287 287 287 287 286 285 284 282 280 277 275 273 271 270 269 268 267 267 266 264 263 261 260 259 259 259 259 261 262 263 264 265 267 268 268 269 269 268 268 266 265 264
278 278 277 278 281 283 285 285 285 285 285 285 285 286 287 289 290 291 293 295 297 299 301 303 305 305 304 302 303 302 296 289 286 285 285 284 284 284 284 286 287 287 288 289 290 290 290 288 286 285 283 281 279 277 275 273 272 271 270 269 268 267 266 265 263 262 261 260 260 260 261 262 262 263 264 265 265 265 265 265 266 266 267 267 266
280 279 278 278 281 283 283 284 283 283 283 284 284 286 287 288 289 290 292 294 295 297 299 300 300 301 300 300 300 300 298 293 288 287 287 286 286 285 286 286 287 287 288 290 292 295 295 294 291 288 285 283 280 278 276 274 273 272 271 270 269 268 268 267 266 264 263 262 261 261 261 262 262 263 264 265 265 265 264 263 262 261 262 264 266
280 280 279 280 281 282 282 281 280 280 281 281 283 285 287 288 289 290 292 293 294 296 297 297 297 298 298 297 298 298 296 294 291 289 288 288 287 286 285 284 284 284 285 287 289 291 294 294 293 290 288 285 282 280 278 276 274 273 272 271 269 268 267 267 267 267 266 264 263 262 262 262 263 263 264 264 264 265 266 266 265 263 261 261 261
280 281 281 281 281 282 281 280 279 279 280 281 283 285 286 287 288 289 291 292 293 294 294 295 295 296 296 295 296 296 295 293 292 290 289 289 288 288 287 286 284 284 284 285 287 288 289 290 290 289 287 285 283 282 280 278 276 274 273 272 271 269 268 267 267 267 267 266 264 264 263 263 264 264 264 264 264 264 265 266 267 267 266 264 262
280 280 280 280 280 280 280 279 279 279 280 281 282 284 284 285 287 288 290 291 292 292 293 293 294 294 294 295 295 295 294 293 292 291 290 288 288 288 289 288 288 287 287 288 289 289 288 288 289 288 286 283 282 280 279 279 278 277 275 273 272 270 268 267 266 266 267 267 265 264 263 263 263 262 262 261 261 261 262 263 264 266 267 267 267
278 278 278 278 278 277 277 277 277 278 279 280 281 282 283 284 286 287 288 289 290 291 291 292 292 293 294 294 294 294 293 292 292 291 289 287 286 286 288 289 290 290 290 291 292 291 290 290 289 288 286 283 281 280 278 277 277 276 275 274 272 270 269 267 266 265 265 265 265 264 263 262 261 261 261 260 260 260 261 262 263 264 265 266 267
276 276 275 275 275 275 275 276 276 277 278 279 280 281 283 284 285 286 286 287 288 289 289 290 291 293 294 294 294 293 292 291 292 290 288 285 284 284 286 287 289 290 291 291 291 290 290 289 288 287 285 283 281 280 278 277 276 275 274 273 271 270 268 267 266 265 264 264 264 264 264 263 262 262 262 262 263 263 264 265 266 267 267 267 267
277 276 274 274 274 274 275 275 276 277 277 278 280 281 282 282 283 283 284 285 286 287 289 290 292 293 294 294 293 291 290 291 291 291 289 287 285 285 286 288 289 290 291 291 290 290 289 288 286 285 284 283 282 280 278 276 276 275 274 273 272 270 268 267 267 266 265 264 264 264 265 264 264 264 264 264 265 265 266 267 268 269 269 268 268
277 275 273 272 272 273 273 273 274 275 276 277 278 279 280 281 281 283 284 285 286 288 290 292 293 294 294 294 293 291 290 289 289 291 291 289 288 288 288 288 290 290 290 291 291 292 291 288 285 285 284 283 283 283 281 278 276 276 275 274 273 271 269 268 267 266 266 265 265 265 265 265 266 266 266 266 266 267 268 268 269 270 270 269 268
274 273 272 271 270 270 270 271 272 273 275 277 278 279 279 280 282 283 284 286 287 289 291 292 293 294 295 295 293 291 290 288 286 287 289 290 288 288 289 289 289 290 290 291 292 292 290 287 286 287 286 283 283 284 284 283 282 280 278 276 275 274 272 271 269 268 267 267 266 266 266 266 266 267 267 267 267 267 268 269 269 269 269 268 267
272 272 273 272 272 271 271 271 273 275 277 278 279 279 280 280 281 282 283 284 286 289 291 292 294 296 296 295 292 290 290 290 288 288 290 292 291 290 290 291 291 291 291 292 292 290 288 286 286 288 286 284 286 285 282 284 287 287 285 282 279 277 276 275 273 272 270 269 269 268 268 268 268 268 268 269 269 269 269 269 269 268 268 267 266
273 273 275 276 276 276 276 277 277 279 280 281 280 279 279 279 279 279 280 283 287 291 293 295 297 297 296 295 294 293 293 294 293 293 295 296 295 294 293 293 293 294 293 293 292 290 288 286 286 286 285 286 288 286 282 283 286 288 290 289 287 284 281 280 278 276 274 272 271 270 269 269 269 269 269 270 270 270 270 269 269 268 267 267 266
275 275 276 278 278 278 278 279 280 280 280 281 281 280 280 279 278 279 282 287 291 294 296 297 298 298 298 298 297 297 297 296 296 297 297 298 299 298 296 295 295 295 295 295 294 292 290 289 288 286 285 286 288 288 286 286 286 288 290 291 291 290 288 285 282 280 278 276 274 273 272 271 270 270 269 269 269 269 270 270 269 269 268 267 267
274 275 277 279 279 277 277 277 277 277 277 277 278 280 281 280 280 283 287 291 293 294 295 296 297 297 298 298 298 297 297 297 297 297 298 299 299 298 298 297 296 296 295 295 294 293 292 291 290 288 286 286 286 287 288 288 289 291 294 294 294 293 291 288 285 283 282 281 279 277 276 275 274 272 271 269 269 268 268 268 268 268 268 268 268
271 272 274 277 278 279 279 278 277 276 275 275 277 279 280 281 283 287 290 291 292 293 293 294 294 295 295 295 296 296 297 297 297 298 298 298 297 297 296 296 295 295 294 294 293 293 291 290 290 288 286 285 285 286 287 288 290 292 294 296 295 294 291 289 286 284 283 283 282 280 278 277 275 274 272 272 271 271 271 270 270 269 268 268 268
269 269 270 272 274 275 277 279 280 280 278 278 279 280 281 282 286 289 291 292 292 293 293 293 293 294 294 294 295 295 296 296 296 297 297 296 296 295 295 295 294 293 293 292 292 291 290 289 287 284 283 283 284 285 286 287 288 290 292 293 294 293 291 288 286 284 282 281 281 279 276 273 272 271 270 271 273 274 274 274 273 272 271 270 269
266 266 267 268 269 270 271 274 277 278 278 277 278 278 279 281 284 288 290 292 292 293 293 293 294 294 294 294 294 294 294 295 295 296 296 296 295 295 294 293 293 292 291 291 290 289 288 286 285 283 281 281 282 282 283 285 286 288 289 291 292 292 291 288 284 283 282 280 279 278 275 271 268 267 267 270 273 275 275 275 275 274 273 271 270
266 266 265 266 267 267 268 269 272 274 273 274 274 275 276 279 283 286 289 291 292 292 292 293 294 294 294 294 294 294 294 295 296 296 296 296 296 295 295 293 292 290 289 289 288 287 286 284 283 282 281 281 280 280 281 283 285 286 288 289 290 290 289 286 283 282 282 280 278 277 274 269 266 265 266 270 274 275 275 275 275 275 273 271 270
268 269 268 267 266 267 268 270 273 273 271 269 270 272 275 279 283 287 290 291 292 292 293 293 293 293 293 293 292 293 293 294 295 295 295 295 295 295 294 293 291 289 288 288 287 286 284 283 282 282 281 281 280 280 281 282 284 286 287 289 288 287 285 284 282 281 281 280 278 276 272 269 266 265 267 270 273 274 274 274 275 275 273 271 269
270 271 270 268 267 268 271 272 271 270 268 267 269 273 277 281 284 287 290 291 292 292 292 292 292 291 291 290 290 290 290 291 291 291 291 292 293 292 291 289 288 288 288 288 287 285 284 282 281 281 280 280 280 280 281 282 284 285 286 287 286 284 283 282 282 281 282 281 279 276 273 270 268 268 269 270 272 273 273 274 274 274 272 271 270
270 270 269 270 270 271 271 270 267 266 268 270 272 275 278 281 284 287 289 289 290 290 289 289 289 288 288 288 288 288 288 288 288 287 287 288 288 287 286 286 286 286 286 286 285 285 283 283 282 281 280 280 281 281 282 283 284 285 285 284 283 282 282 282 282 282 282 281 280 278 275 273 272 271 272 272 273 273 273 274 274 273 272 271 271
266 266 268 270 272 272 271 271 271 272 273 274 276 278 280 283 285 286 287 287 287 287 286 286 286 286 286 286 286 287 287 287 286 286 286 285 284 282 281 281 281 282 283 283 283 283 282 282 282 282 282 283 282 282 283 284 285 286 286 285 284 283 283 283 284 283 282 281 280 279 278 276 275 274 274 274 274 274 274 274 274 273 273 273 273
261 263 265 267 269 271 272 273 274 276 277 278 280 281 283 284 284 284 284 284 284 284 284 284 284 284 284 284 285 285 285 285 285 285 285 285 283 281 279 279 279 280 281 280 281 281 281 282 282 283 283 283 283 283 283 284 285 285 285 285 285 285 286 286 285 285 284 284 283 282 280 279 277 277 276 277 276 276 276 276 275 275 275 275 275
260 261 263 264 266 268 270 272 274 276 278 280 281 282 282 282 282 282 281 281 281 281 281 281 281 281 282 282 282 282 282 283 283 283 283 283 281 279 278 279 280 280 280 279 280 280 280 281 281 282 282 282 281 282 282 283 283 282 282 283 284 285 285 285 285 285 285 285 285 284 282 281 280 279 278 278 278 277 277 276 276 276 275 275 276
261 262 262 263 265 266 268 270 272 274 277 279 280 280 280 280 280 279 279 279 279 279 279 278 278 279 279 279 280 280 280 280 281 281 281 280 278 277 278 279 279 279 279 279 278 279 279 280 280 280 281 281 281 281 281 281 280 281 281 282 283 283 283 283 283 284 284 284 284 283 282 281 281 280 279 278 279 279 278 276 275 275 275 275 276
Height
10740 10740 10740 10740 10739 10738 10737 10737 10736 10735 10734 10734 10734 10733 10733 10732 10732 10730 10729 10728 10726 10725 10723 10721 10718 10716 10714 10713 10711 10710 10710 10711 10712 10712 10711 10711 10711 10712 10712 10710 10710 10710 10711 10711 10712 10713 10713 10713 10714 10714 10715 10715 10716 10716 10716 10717 10717 10717 10717 10717 10717 10717 10718 10718 10718 10719 10719 10720 10720 10721 10721 10722 10722 10723 10724 10725 10726 10727 10728 10729 10730 10731 10732 10732 10733
10736 10736 10736 10736 10736 10735 10734 10734 10733 10732 10731 10731 10731 10730 10730 10729 10728 10727 10726 10724 10722 10720 10718 10717 10714 10711 10709 10709 10707 10707 10708 10708 10709 10709 10708 10708 10709 10710 10711 10710 10708 10708 10709 10710 10710 10710 10711 10711 10711 10712 10712 10713 10713 10713 10714 10714 10714 10713 10713 10713 10713 10713 10713 10714 10714 10715 10716 10716 10717 10717 10718 10718 10719 10720 10721 10722 10723 10724 10726 10726 10727 10728 10729 10730 10730
10732 10732 10732 10732 10731 10731 10730 10730 10729 10729 10729 10728 10728 10727 10727 10726 10725 10723 10722 10719 10717 10715 10713 10712 10710 10706 10704 10704 10703 10704 10705 10705 10705 10705 10705 10705 10706 10708 10709 10709 10707 10706 10707 10708 10708 10708 10708 10708 10709 10709 10710 10710 10710 10710 10710 10710 10709 10709 10708 10708 10708 10708 10709 10709 10710 10711 10712 10712 10713 10713 10714 10715 10715 10716 10717 10719 10720 10721 10723 10724 10724 10725 10726 10727 10727
10728 10727 10727 10727 10727 10726 10726 10726 10725 10726 10725 10725 10724 10724 10723 10722 10720 10718 10716 10714 10712 10710 10709 10707 10706 10703 10699 10699 10700 10700 10701 10702 10702 10702 10702 10702 10703 10704 10706 10706 10705 10705 10705 10705 10706 10706 10706 10706 10706 10706 10707 10707 10707 10706 10706 10706 10705 10704 10704 10704 10704 10704 10704 10705 10706 10707 10707 10708 10709 10709 10710 10711 10712 10713 10714 10715 10717 10718 10719 10720 10721 10722 10723 10724 10725
10724 10723 10723 10723 10723 10722 10721 10721 10721 10721 10721 10721 10720 10719 10719 10717 10715 10713 10711 10710 10708 10706 10704 10703 10702 10698 10696 10695 10696 10697 10698 10698 10700 10700 10699 10700 10701 10703 10704 10704 10703 10704 10704 10703 10704 10704 10704 10703 10703 10703 10703 10703 10703 10702 10701 10701 10701 10701 10701 10700 10700 10700 10700 10701 10702 10702 10703 10704 10705 10706 10707 10708 10709 10710 10711 10712 10713 10715 10716 10717 10718 10719 10720 10721 10722
10719 10719 10719 10719 10719 10718 10718 10717 10717 10717 10717 10716 10716 10715 10714 10712 10711 10709 10707 10705 10704 10702 10700 10699 10697 10695 10693 10692 10693 10694 10695 10696 10697 10698 10698 10699 10700 10701 10702 10701 10702 10702 10702 10701 10701 10701 10700 10700 10700 10699 10700 10700 10699 10699 10698 10698 10698 10698 10698 10698 10697 10697 10697 10697 10698 10698 10699 10700 10701 10702 10703 10705 10706 10707 10708 10709 10710 10711 10712 10714 10715 10716 10716 10717 10718
10715 10715 10714 10715 10715 10714 10714 10713 10713 10712 10712 10712 10711 10710 10709 10708 10707 10705 10704 10702 10701 10699 10696 10694 10693 10692 10691 10691 10691 10692 10693 10693 10695 10696 10697 10698 10698 10699 10700 10700 10700 10700 10699 10699 10698 10697 10697 10697 10697 10697 10697 10696 10696 10696 10696 10695 10695 10695 10695 10695 10694 10694 10694 10694 10694 10695 10695 10696 10697 10699 10700 10701 10702 10703 10704 10705 10706 10707 10709 10710 10711 10712 10713 10714 10715
10712 10711 10711 10711 10711 10711 10710 10709 10709 10708 10708 10707 10707 10706 10705 10704 10703 10701 10700 10699 10697 10695 10693 10691 10690 10689 10689 10689 10689 10690 10691 10692 10693 10694 10695 10696 10697 10697 10698 10697 10697 10697 10696 10695 10695 10694 10694 10695 10695 10695 10694 10693 10692 10692 10692 10692 10691 10691 10691 10691 10692 10692 10691 10691 10691 10691 10692 10693 10694 10696 10697 10698 10699 10699 10700 10701 10703 10704 10705 10706 10707 10708 10709 10710 10711
10708 10708 10707 10707 10707 10707 10706 10706 10705 10704 10703 10703 10702 10702 10701 10700 10699 10698 10697 10695 10693 10690 10688 10687 10687 10687 10687 10687 10687 10688 10689 10690 10690 10691 10693 10694 10694 10694 10695 10694 10694 10693 10692 10692 10692 10692 10692 10693 10693 10692 10691 10690 10689 10689 10689 10689 10689 10689 10689 10689 10689 10689 10689 10688 10688 10688 10689 10690 10691 10692 10693 10694 10695 10696 10697 10698 10699 10700 10701 10702 10703 10704 10705 10706 10707
10704 10704 10703 10702 10702 10702 10702 10701 10701 10700 10699 10698 10698 10698 10698 10697 10696 10695 10693 10692 10690 10686 10683 10683 10684 10685 10685 10685 10686 10686 10687 10688 10687 10688 10690 10691 10692 10692 10692 10692 10692 10690 10689 10689 10688 10689 10690 10690 10690 10689 10688 10687 10687 10687 10687 10686 10686 10686 10686 10687 10687 10687 10687 10686 10686 10686 10687 10688 10689 10689 10690 10691 10692 10693 10694 10694 10695 10696 10697 10698 10699 10701 10702 10703 10704
10701 10701 10700 10699 10697 10697 10697 10697 10696 10696 10695 10695 10695 10695 10695 10694 10693 10692 10689 10688 10686 10684 10681 10680 10681 10683 10682 10683 10683 10684 10684 10684 10684 10685 10686 10688 10689 10690 10690 10691 10690 10688 10686 10685 10685 10686 10687 10687 10686 10686 10686 10685 10685 10685 10684 10684 10684 10684 10684 10684 10684 10684 10683 10684 10685 10685 10686 10686 10686 10687 10687 10688 10689 10690 10691 10691 10692 10693 10694 10695 10696 10697 10698 10699 10700
10697 10697 10696 10696 10695 10694 10693 10693 10692 10692 10691 10691 10691 10692 10692 10692 10690 10688 10686 10684 10683 10682 10680 10678 10679 10680 10680 10680 10680 10681 10681 10682 10682 10683 10684 10684 10685 10687 10688 10688 10687 10685 10683 10682 10682 10683 10683 10683 10683 10683 10683 10683 10683 10682 10682 10682 10682 10682 10682 10682 10681 10680 10680 10682 10684 10684 10685 10684 10684 10684 10685 10685 10686 10686 10687 10688 10689 10690 10691 10692 10693 10693 10694 10695 10696
10692 10692 10692 10693 10693 10692 10691 10690 10689 10689 10689 10689 10689 10689 10689 10688 10686 10685 10683 10681 10681 10680 10679 10678 10678 10678 10678 10678 10678 10679 10679 10679 10680 10681 10681 10681 10682 10683 10684 10684 10683 10681 10680 10679 10679 10680 10680 10680 10680 10680 10680 10680 10680 10680 10680 10680 10680 10680 10680 10679 10677 10677 10679 10681 10682 10682 10683 10682 10681 10681 10682 10682 10683 10683 10684 10685 10686 10686 10687 10688 10688 10689 10690 10691 10692
10689 10688 10688 10688 10688 10688 10688 10687 10687 10687 10686 10686 10686 10686 10685 10684 10683 10682 10680 10679 10679 10678 10678 10678 10677 10676 10676 10676 10677 10677 10677 10677 10678 10678 10678 10678 10679 10679 10680 10680 10678 10676 10676 10675 10675 10676 10676 10676 10676 10677 10677 10677 10678 10678 10677 10677 10678 10678 10677 10675 10675 10676 10678 10679 10679 10680 10681 10680 10679 10678 10679 10680 10680 10681 10681 10682 10682 10683 10683 10684 10684 10685 10686 10687 10688
10684 10684 10683 10683 10683 10683 10683 10684 10684 10684 10684 10683 10682 10682 10681 10680 10679 10679 10678 10677 10677 10677 10676 10676 10676 10675 10674 10674 10675 10676 10675 10675 10676 10676 10675 10675 10676 10676 10675 10675 10674 10673 10672 10672 10672 10673 10673 10673 10673 10674 10673 10673 10674 10675 10674 10674 10675 10675 10674 10673 10673 10675 10676 10677 10677 10678 10678 10677 10676 10675 10676 10677 10677 10677 10678 10678 10678 10678 10679 10680 10681 10681 10682 10683 10684
10680 10680 10679 10679 10679 10679 10680 10680 10680 10681 10680 10679 10679 10679 10678 10677 10676 10675 10676 10675 10675 10675 10675 10675 10674 10673 10672 10672 10673 10675 10674 10673 10673 10673 10673 10673 10672 10672 10672 10671 10671 10670 10670 10670 10670 10670 10670 10670 10671 10671 10670 10669 10670 10671 10670 10670 10670 10671 10671 10670 10671 10672 10673 10674 10675 10675 10675 10673 10672 10672 10673 10673 10673 10674 10674 10674 10674 10674 10675 10676 10677 10678 10678 10679 10680
10676 10676 10676 10676 10676 10676 10676 10676 10676 10676 10676 10675 10675 10675 10674 10673 10673 10673 10673 10673 10673 10673 10673 10673 10672 10672 10670 10669 10670 10672 10673 10671 10670 10670 10670 10670 10670 10669 10669 10668 10668 10667 10667 10666 10667 10668 10668 10668 10668 10668 10667 10666 10666 10667 10666 10666 10665 10665 10666 10667 10667 10668 10669 10670 10672 10673 10671 10668 10668 10668 10669 10669 10669 10670 10670 10670 10670 10671 10672 10673 10673 10674 10674 10675 10676
10673 10673 10673 10673 10673 10673 10673 10673 10673 10673 10672 10672 10672 10672 10671 10670 10670 10670 10670 10670 10670 10671 10671 10671 10671 10670 10668 10667 10666 10668 10669 10669 10668 10667 10667 10668 10668 10667 10666 10665 10664 10663 10663 10662 10663 10664 10664 10664 10664 10664 10664 10663 10663 10663 10662 10662 10661 10660 10660 10661 10663 10664 10665 10666 10668 10669 10667 10664 10663 10664 10664 10664 10665 10666 10666 10665 10666 10667 10668 10669 10669 10670 10670 10671 10672
10670 10670 10670 10670 10670 10670 10670 10669 10669 10669 10669 10668 10669 10669 10668 10667 10667 10667 10667 10667 10667 10667 10668 10669 10668 10668 10667 10665 10664 10663 10663 10664 10665 10664 10663 10664 10664 10664 10662 10661 10660 10658 10658 10658 10659 10659 10659 10659 10659 10659 10659 10659 10659 10658 10658 10658 10657 10656 10655 10656 10657 10659 10660 10661 10664 10665 10663 10660 10659 10659 10659 10659 10660 10661 10661 10661 10662 10663 10664 10664 10664 10665 10666 10667 10668
10666 10666 10666 10666 10666 10666 10666 10665 10666 10665 10665 10665 10665 10665 10665 10664 10663 10663 10663 10664 10664 10664 10665 10665 10665 10665 10664 10663 10661 10660 10659 10659 10660 10659 10658 10658 10658 10658 10657 10655 10654 10654 10653 10654 10654 10654 10654 10653 10653 10653 10653 10653 10653 10653 10653 10653 10653 10652 10652 10652 10652 10653 10655 10656 10658 10660 10659 10657 10655 10654 10654 10654 10655 10656 10657 10658 10658 10659 10659 10659 10660 10660 10660 10662 10663
10662 10661 10661 10661 10661 10662 10662 10662 10662 10662 10661 10662 10662 10662 10661 10660 10660 10660 10660 10661 10661 10661 10662 10662 10661 10661 10661 10659 10658 10656 10656 10655 10655 10655 10654 10652 10651 10651 10650 10649 10649 10649 10650 10650 10650 10649 10648 10648 10647 10647 10647 10647 10647 10647 10648 10648 10648 10648 10648 10648 10648 10649 10650 10651 10652 10653 10653 10653 10652 10650 10649 10649 10651 10651 10652 10653 10654 10654 10654 10654 10655 10655 10655 10657 10658
10658 10657 10657 10657 10657 10658 10658 10657 10658 10658 10658 10658 10659 10658 10658 10658 10657 10657 10657 10657 10658 10658 10658 10658 10658 10657 10657 10656 10654 10653 10652 10652 10651 10651 10649 10647 10646 10645 10645 10644 10644 10645 10645 10646 10645 10644 10643 10642 10642 10642 10641 10641 10641 10641 10641 10642 10642 10643 10643 10643 10643 10644 10644 10645 10647 10647 10647 10647 10647 10646 10646 10645 10646 10646 10647 10648 10648 10649 10649 10649 10650 10650 10650 10652 10652
10654 10653 10652 10652 10653 10653 10653 10653 10653 10654 10654 10655 10655 10655 10655 10654 10654 10654 10654 10655 10654 10654 10654 10654 10654 10654 10653 10652 10651 10650 10649 10648 10647 10646 10645 10643 10642 10640 10640 10640 10640 10641 10641 10640 10639 10638 10637 10637 10636 10636 10636 10636 10636 10636 10636 10636 10636 10637 10637 10638 10638 10638 10639 10639 10641 10642 10642 10642 10641 10641 10641 10641 10641 10641 10641 10642 10642 10643 10644 10644 10644 10644 10644 10645 10646
10650 10650 10648 10647 10648 10648 10649 10648 10648 10649 10650 10651 10651 10651 10651 10651 10650 10650 10651 10651 10651 10651 10650 10650 10650 10650 10649 10648 10648 10647 10646 10645 10643 10641 10640 10639 10637 10636 10635 10636 10636 10636 10636 10635 10633 10632 10632 10631 10631 10631 10630 10630 10630 10630 10630 10630 10630 10631 10631 10632 10632 10633 10633 10633 10634 10635 10636 10636 10636 10635 10635 10635 10635 10635 10635 10636 10636 10637 10637 10638 10638 10638 10638 10639 10640
10645 10646 10645 10643 10643 10644 10645 10645 10644 10645 10646 10646 10647 10647 10647 10647 10646 10646 10646 10647 10647 10646 10646 10645 10646 10646 10645 10645 10644 10644 10643 10641 10639 10638 10636 10635 10633 10632 10632 10632 10633 10633 10632 10630 10629 10628 10628 10627 10627 10626 10625 10625 10625 10625 10625 10625 10625 10625 10625 10626 10626 10627 10627 10627 10628 10628 10629 10630 10630 10630 10629 10629 10629 10629 10629 10629 10629 10630 10631 10631 10632 10632 10632 10632 10633
10639 10641 10641 10639 10639 10640 10641 10641 10640 10640 10641 10641 10642 10642 10643 10643 10642 10642 10642 10642 10642 10642 10641 10641 10641 10641 10641 10640 10640 10640 10638 10637 10636 10634 10632 10630 10628 10628 10628 10629 10629 10629 10628 10626 10625 10625 10624 10624 10623 10622 10621 10621 10620 10620 10619 10619 10619 10620 10620 10620 10620 10620 10621 10621 10621 10622 10622 10623 10623 10623 10624 10623 10623 10623 10622 10622 10622 10623 10623 10624 10625 10625 10626 10626 10627
10633 10635 10635 10635 10635 10635 10636 10636 10635 10635 10636 10636 10637 10637 10638 10638 10638 10638 10638 10638 10637 10637 10637 10636 10636 10636 10636 10636 10636 10635 10634 10633 10632 10630 10628 10626 10624 10623 10624 10625 10625 10625 10624 10622 10621 10620 10620 10619 10618 10618 10617 10616 10615 10615 10614 10614 10614 10614 10614 10614 10614 10614 10614 10614 10615 10615 10615 10616 10616 10617 10617 10617 10617 10617 10617 10617 10616 10616 10616 10617 10617 10618 10618 10619 10620
10628 10628 10629 10629 10630 10630 10630 10630 10630 10630 10630 10631 10631 10632 10632 10632 10632 10632 10632 10632 10632 10632 10632 10631 10631 10631 10631 10631 10631 10630 10630 10629 10628 10627 10624 10621 10618 10618 10620 10620 10620 10619 10619 10618 10617 10615 10615 10614 10612 10612 10611 10611 10610 10609 10609 10608 10608 10608 10607 10607 10607 10607 10608 10608 10608 10608 10608 10609 10609 10609 10610 10610 10610 10610 10610 10610 10610 10610 10610 10611 10611 10611 10611 10612 10612
10624 10623 10623 10624 10624 10624 10624 10625 10625 10625 10625 10625 10626 10626 10626 10626 10626 10626 10627 10627 10627 10626 10626 10625 10625 10625 10626 10626 10626 10625 10625 10624 10623 10622 10620 10617 10614 10612 10614 10615 10614 10614 10614 10614 10613 10611 10610 10609 10607 10606 10605 10604 10603 10603 10603 10602 10602 10601 10601 10601 10601 10601 10601 10601 10601 10601 10601 10602 10602 10602 10603 10603 10603 10603 10604 10604 10604 10604 10603 10604 10604 10605 10605 10605 10605
10618 10617 10617 10618 10618 10618 10618 10618 10619 10619 10619 10619 10620 10620 10620 10620 10620 10620 10621 10621 10621 10621 10620 10620 10619 10620 10620 10621 10621 10620 10619 10618 10618 10617 10616 10613 10610 10607 10606 10607 10607 10607 10608 10608 10607 10606 10606 10605 10603 10602 10600 10599 10598 10597 10596 10595 10595 10595 10595 10595 10595 10594 10594 10594 10594 10594 10595 10595 10595 10595 10596 10596 10596 10596 10596 10597 10597 10597 10597 10597 10597 10597 10598 10598 10598
10610 10611 10611 10612 10612 10612 10612 10612 10613 10613 10614 10614 10614 10614 10614 10615 10615 10615 10615 10615 10615 10615 10614 10614 10614 10614 10614 10614 10615 10615 10613 10612 10612 10612 10611 10609 10606 10603 10601 10600 10599 10599 10600 10600 10600 10599 10599 10599 10598 10596 10595 10594 10592 10591 10590 10589 10589 10588 10588 10588 10588 10587 10587 10587 10587 10587 10588 10588 10588 10588 10588 10588 10589 10589 10589 10589 10589 10590 10590 10590 10590 10590 10591 10591 10591
10604 10604 10605 10605 10606 10606 10607 10607 10607 10608 10608 10608 10608 10609 10609 10610 10610 10610 10610 10610 10610 10609 10609 10609 10608 10608 10608 10608 10608 10608 10608 10607 10607 10608 10606 10604 10602 10600 10598 10596 10594 10592 10592 10592 10592 10591 10591 10591 10590 10589 10588 10588 10587 10585 10584 10584 10583 10583 10582 10582 10581 10580 10580 10580 10580 10580 10581 10581 10581 10581 10581 10581 10582 10582 10582 10582 10582 10582 10583 10583 10583 10583 10584 10584 10584
10598 10599 10599 10600 10600 10601 10601 10601 10602 10602 10602 10603 10603 10604 10604 10605 10605 10605 10604 10605 10605 10604 10604 10604 10604 10603 10603 10602 10602 10602 10601 10602 10602 10602 10601 10599 10597 10596 10594 10592 10590 10587 10585 10585 10584 10584 10584 10584 10583 10582 10581 10581 10581 10579 10578 10577 10577 10577 10576 10575 10573 10573 10573 10573 10573 10573 10573 10573 10574 10574 10574 10574 10575 10575 10575 10575 10575 10575 10575 10575 10575 10576 10576 10576 10577
10593 10593 10594 10594 10595 10596 10596 10596 10596 10596 10596 10597 10598 10599 10599 10599 10599 10598 10598 10599 10600 10599 10599 10599 10598 10598 10597 10597 10596 10595 10595 10595 10596 10596 10595 10593 10591 10590 10590 10588 10586 10583 10580 10579 10578 10577 10577 10577 10577 10576 10575 10574 10573 10573 10572 10570 10569 10570 10569 10568 10566 10566 10566 10565 10565 10565 10566 10566 10566 10566 10566 10566 10566 10567 10567 10567 10567 10567 10567 10567 10567 10567 10567 10568 10568
10587 10588 10588 10589 10590 10591 10591 10591 10591 10591 10591 10592 10593 10594 10593 10593 10592 10592 10592 10592 10593 10593 10593 10593 10592 10591 10591 10591 10590 10589 10588 10588 10589 10590 10589 10587 10585 10584 10584 10583 10581 10578 10576 10573 10572 10570 10569 10568 10569 10569 10569 10567 10566 10565 10565 10564 10563 10563 10562 10560 10559 10559 10558 10558 10558 10558 10558 10558 10558 10558 10558 10558 10557 10558 10558 10558 10559 10558 10558 10558 10558 10558 10559 10559 10559
10581 10582 10583 10584 10584 10585 10585 10585 10585 10585 10586 10587 10588 10587 10587 10586 10585 10585 10585 10585 10586 10587 10587 10587 10586 10585 10585 10585 10585 10583 10582 10581 10581 10581 10582 10581 10580 10578 10578 10577 10575 10574 10571 10569 10567 10565 10563 10562 10560 10561 10562 10561 10560 10558 10557 10557 10557 10556 10554 10553 10551 10550 10550 10551 10551 10550 10550 10550 10550 10550 10550 10549 10549 10549 10549 10549 10550 10550 10549 10549 10549 10549 10550 10550 10550
10575 10576 10577 10578 10579 10579 10579 10579 10579 10580 10581 10582 10581 10580 10580 10580 10580 10580 10579 10579 10580 10581 10582 10581 10580 10579 10579 10579 10579 10578 10576 10575 10573 10572 10572 10572 10572 10572 10571 10569 10568 10567 10566 10564 10562 10560 10559 10557 10555 10554 10553 10553 10553 10552 10551 10551 10550 10548 10547 10546 10545 10544 10544 10544 10543 10543 10543 10542 10542 10542 10542 10541 10541 10540 10540 10540 10540 10541 10541 10541 10541 10541 10541 10541 10541
10569 10570 10571 10572 10573 10573 10572 10573 10574 10575 10576 10576 10575 10574 10575 10575 10575 10575 10574 10574 10574 10573 10573 10573 10573 10573 10573 10572 10572 10571 10570 10568 10567 10564 10562 10562 10563 10563 10563 10562 10560 10558 10558 10557 10557 10555 10554 10553 10551 10549 10547 10546 10546 10545 10545 10545 10544 10542 10541 10540 10538 10538 10538 10538 10537 10536 10535 10535 10534 10534 10534 10534 10533 10533 10533 10532 10532 10531 10531 10531 10531 10532 10532 10532 10533
10563 10564 10565 10566 10566 10566 10566 10566 10569 10570 10570 10570 10569 10569 10569 10569 10569 10568 10568 10568 10567 10565 10564 10563 10564 10564 10563 10563 10564 10563 10562 10561 10559 10558 10555 10553 10553 10554 10555 10554 10552 10550 10549 10548 10548 10548 10547 10547 10546 10544 10543 10541 10540 10539 10539 10538 10537 10536 10535 10534 10533 10532 10532 10531 10530 10528 10527 10527 10526 10526 10526 10525 10524 10524 10524 10524 10524 10523 10522 10522 10522 10522 10522 10523 10523
10558 10559 10559 10559 10559 10559 10559 10560 10562 10563 10563 10563 10563 10563 10563 10562 10562 10561 10561 10561 10559 10558 10557 10555 10555 10554 10553 10552 10552 10553 10553 10552 10552 10551 10549 10546 10545 10544 10545 10546 10545 10544 10542 10541 10540 10539 10538 10538 10538 10538 10537 10535 10534 10533 10532 10531 10530 10529 10528 10527 10527 10526 10526 10525 10523 10522 10520 10519 10517 10517 10518 10517 10515 10514 10514 10514 10514 10514 10513 10513 10513 10513 10513 10513 10514
10554 10554 10554 10554 10552 10551 10550 10551 10553 10555 10555 10555 10555 10555 10555 10554 10553 10553 10553 10553 10552 10551 10550 10549 10548 10547 10546 10544 10542 10541 10542 10542 10542 10542 10541 10540 10538 10536 10536 10537 10537 10536 10535 10534 10534 10532 10530 10529 10529 10529 10529 10528 10527 10526 10525 10523 10522 10521 10520 10520 10519 10519 10518 10518 10517 10515 10514 10512 10510 10509 10510 10510 10507 10504 10504 10504 10504 10504 10504 10504 10504 10504 10504 10504 10505
10550 10549 10549 10550 10549 10546 10544 10543 10544 10545 10547 10547 10547 10547 10547 10547 10545 10545 10544 10544 10544 10543 10542 10541 10540 10539 10538 10537 10535 10533 10532 10531 10532 10532 10532 10532 10530 10529 10528 10527 10527 10527 10527 10527 10527 10526 10524 10523 10522 10521 10521 10520 10519 10518 10517 10515 10514 10514 10513 10512 10512 10511 10510 10509 10508 10508 10508 10506 10503 10501 10502 10503 10500 10496 10495 10495 10495 10495 10496 10495 10495 10495 10495 10495 10495
10545 10545 10545 10545 10544 10543 10541 10539 10539 10539 10539 10540 10541 10541 10540 10540 10539 10537 10536 10535 10535 10534 10533 10532 10531 10530 10529 10528 10527 10525 10524 10523 10523 10523 10523 10523 10522 10521 10520 10519 10518 10518 10517 10518 10519 10519 10518 10516 10515 10513 10513 10512 10511 10510 10509 10508 10506 10506 10505 10504 10503 10502 10500 10499 10498 10498 10499 10499 10496 10492 10492 10494 10493 10489 10486 10486 10486 10487 10487 10487 10486 10486 10485 10485 10485
10540 10540 10540 10539 10538 10537 10536 10535 10534 10534 10533 10533 10533 10534 10533 10533 10531 10530 10530 10528 10527 10526 10525 10524 10523 10521 10520 10518 10517 10516 10515 10514 10512 10512 10512 10512 10512 10512 10511 10511 10510 10509 10509 10509 10510 10510 10509 10509 10507 10506 10505 10504 10503 10502 10501 10500 10499 10498 10497 10495 10494 10492 10490 10489 10487 10486 10488 10489 10488 10484 10481 10482 10483 10482 10478 10477 10477 10477 10478 10477 10476 10476 10475 10474 10474
10534 10533 10533 10532 10531 10530 10530 10529 10527 10527 10527 10526 10526 10526 10525 10525 10524 10523 10522 10520 10519 10517 10516 10515 10514 10512 10511 10510 10509 10508 10508 10507 10504 10502 10502 10502 10502 10502 10501 10501 10500 10499 10499 10500 10501 10501 10501 10500 10500 10499 10497 10496 10495 10493 10492 10492 10491 10490 10488 10486 10484 10482 10480 10479 10477 10475 10476 10478 10478 10476 10472 10471 10472 10472 10470 10468 10467 10467 10467 10467 10466 10466 10464 10462 10462
10528 10527 10524 10523 10523 10523 10523 10523 10521 10519 10520 10520 10520 10519 10518 10517 10516 10515 10514 10513 10511 10509 10508 10506 10505 10503 10502 10501 10501 10501 10502 10501 10499 10496 10495 10494 10494 10492 10491 10490 10490 10490 10490 10490 10490 10491 10491 10491 10491 10491 10490 10488 10486 10485 10483 10482 10481 10480 10479 10477 10475 10473 10471 10469 10468 10466 10466 10467 10467 10465 10463 10462 10462 10461 10459 10457 10457 10456 10456 10456 10456 10455 10453 10451 10450
10521 10519 10513 10511 10514 10516 10515 10514 10513 10512 10512 10513 10513 10512 10511 10510 10509 10508 10507 10506 10504 10503 10501 10499 10497 10495 10493 10492 10491 10492 10493 10493 10492 10490 10490 10490 10489 10484 10481 10480 10480 10480 10480 10480 10479 10479 10479 10479 10480 10480 10480 10479 10477 10475 10473 10472 10470 10469 10469 10468 10466 10464 10462 10461 10459 10458 10458 10458 10456 10454 10454 10454 10453 10452 10449 10446 10445 10445 10445 10445 10444 10443 10442 10441 10440
10512 10510 10505 10501 10503 10506 10506 10506 10504 10503 10502 10503 10503 10503 10503 10502 10502 10501 10500 10499 10498 10496 10494 10493 10490 10487 10485 10483 10483 10482 10482 10482 10482 10481 10482 10484 10483 10478 10474 10471 10471 10471 10472 10471 10469 10468 10468 10468 10468 10468 10469 10468 10467 10465 10463 10462 10460 10458 10457 10456 10455 10454 10453 10452 10450 10448 10448 10448 10447 10445 10445 10445 10444 10443 10440 10437 10435 10434 10434 10434 10432 10431 10430 10430 10430
10504 10503 10501 10498 10496 10497 10497 10496 10495 10493 10491 10491 10492 10492 10492 10492 10493 10492 10492 10491 10490 10489 10487 10485 10482 10479 10477 10475 10474 10474 10473 10472 10471 10471 10472 10473 10473 10470 10466 10463 10462 10463 10463 10462 10460 10459 10457 10457 10456 10456 10457 10457 10456 10455 10454 10453 10451 10449 10447 10445 10444 10444 10443 10442 10440 10437 10436 10437 10437 10435 10435 10435 10434 10433 10431 10428 10425 10424 10424 10423 10421 10420 10420 10420 10420
10498 10496 10495 10493 10491 10490 10490 10489 10488 10486 10483 10481 10481 10481 10481 10481 10482 10482 10482 10482 10481 10481 10480 10478 10475 10471 10469 10467 10466 10465 10464 10463 10462 10462 10462 10464 10464 10460 10455 10454 10454 10454 10454 10452 10451 10449 10448 10447 10446 10446 10446 10446 10445 10445 10445 10443 10441 10439 10438 10437 10436 10435 10434 10432 10429 10427 10426 10427 10426 10424 10423 10424 10424 10424 10423 10419 10416 10414 10414 10414 10411 10410 10410 10411 10410
10490 10489 10488 10487 10486 10485 10484 10482 10481 10479 10476 10474 10472 10471 10470 10470 10470 10471 10472 10472 10472 10472 10471 10470 10467 10464 10460 10458 10457 10456 10455 10454 10453 10452 10452 10454 10455 10451 10447 10445 10444 10444 10443 10442 10441 10440 10438 10437 10437 10436 10436 10435 10435 10435 10434 10432 10431 10429 10429 10429 10428 10426 10424 10422 10420 10418 10417 10417 10415 10413 10412 10413 10413 10413 10413 10412 10409 10405 10403 10403 10402 10400 10401 10402 10402